Tracking 25709 objects as of 23-May-2022
HD Live streaming from Space Station
objects crossing your sky now

USA 82

Track USA 82 now!
USA 82 is classified as:


NORAD ID: 22009
Int'l Code: 1992-037A
Perigee: 36,155.6 km
Apogee: 36,260.7 km
Inclination: 13.3 °
Period: 1,457.3 minutes
Semi major axis: 42579 km
RCS: Unknown
Launch date: July 2, 1992
Source: United States (US)
Launch site: AIR FORCE EASTERN TEST RANGE (AFETR)

Super High Frequency (SHF) for U.S. government and military; sophisticated survivability enhancement; worldwide, longhaul coverage; X-band.
aabbcc
Your satellite tracking list
Your tracking list is empty




NASA's NSSDC Master Catalog

Two Line Element Set (TLE):
1 22009U 92037A   22143.33833559 -.00000046  00000-0  00000-0 0  9996
2 22009  13.2500  19.9024 0012343  23.8411 170.1352  0.98811505 10460
Source of the keplerian elements: McCants